パンスターズ彗星

P/2024 R2 ( PanSTARRS )

English version
Home page
Updated on March 23, 2025

---------------------------------------------------------------------

・ プロフィール

発見日 2024年9月3日
発見光度 20.7等
発見者 Pan-STARRS 2 telescope (Haleakala)

・ 写真集

・ 軌道要素

Epoch 2025 May 5.0 TT = JDT 2460800.5
T 2024 Oct. 1.81647 TT                                  Pike
q   2.3033553            (2000.0)            P               Q
n   0.17632915     Peri.  203.95435     +0.80201615     -0.59440396
a   3.1495848      Node   193.02520     +0.58145046     +0.79946068
e   0.2686797      Incl.   15.11544     +0.13669477     +0.08687084
P   5.59
From 46 observations 2024 Aug. 9-Oct. 31, mean residual 0".6.

・ 光度変化

        m1 = 15.2 + 5 logΔ + 10.0 log r

---------------------------------------------------------------------

軌道要素はM.P.E.C. 2025-C143に掲載されたものです。
光度グラフはComet for Windowsで作成したものです。

---------------------------------------------------------------------

Copyright(C) Seiichi Yoshida (comet@aerith.net). All rights reserved.